Location: Elstree
(51.6403°N, 0.2969°W)
Time: 04:41:05
(UTC+00:00)

FALCON 9 DEB - Visible Passes

Search period start: 15 June 2021 00:00
Search period end: 25 June 2021 00:00
Orbit: 364 x 376 km, 53.0° (Epoch: 14 June)

Date Brightness Start Highest point End Pass type
(mag) Time Alt. Az. Time Alt. Az. Time Alt. Az.
15 Jun 3.0 01:21:30 10° W 01:24:36 75° N 01:27:42 10° ENE visible
15 Jun 4.6 22:47:10 17° ESE 22:47:10 17° ESE 22:48:32 10° E visible
16 Jun 2.7 00:19:02 16° WSW 00:21:25 79° SSE 00:24:31 10° ENE visible
16 Jun 3.3 01:54:02 10° W 01:57:07 65° N 02:00:11 10° E visible
16 Jun 3.0 23:16:35 22° SW 23:18:18 47° SSE 23:21:18 10° ENE visible
17 Jun 3.1 00:50:46 10° W 00:53:51 69° N 00:56:57 10° ENE visible
17 Jun 2.9 02:26:30 10° WNW 02:29:35 83° N 02:32:41 10° ESE visible
17 Jun 3.8 22:12:37 10° SSW 22:15:15 26° SE 22:17:54 10° E visible
17 Jun 2.7 23:47:31 10° WSW 23:50:37 89° NNW 23:53:44 10° ENE visible
18 Jun 3.2 01:23:14 10° W 01:26:21 67° N 01:29:25 10° E visible
18 Jun 4.7 21:10:38 10° S 21:12:19 14° SE 21:14:00 10° ESE visible
18 Jun 2.8 22:44:22 10° WSW 22:47:25 58° SSE 22:50:29 10° ENE visible
19 Jun 3.2 00:19:57 10° W 00:23:02 66° N 00:26:07 10° E visible
19 Jun 2.7 01:55:39 10° WNW 01:58:45 86° SSW 02:01:50 10° ESE visible
19 Jun 3.5 21:41:28 10° SW 21:44:17 33° SSE 21:47:07 10° E visible
19 Jun 2.9 23:16:38 10° W 23:19:45 79° N 23:22:50 10° ENE visible
20 Jun 3.1 00:52:22 10° WNW 00:55:28 71° N 00:58:34 10° E visible
20 Jun 3.1 02:28:02 10° W 02:31:00 43° SSW 02:33:56 10° SE visible
20 Jun 2.7 22:13:22 10° WSW 22:16:28 71° SSE 22:19:33 10° ENE visible
20 Jun 3.2 23:49:03 10° W 23:52:08 65° N 23:55:13 10° E visible
21 Jun 2.7 01:24:43 10° WNW 01:27:48 74° SSW 01:30:53 10° ESE visible
21 Jun 3.2 21:10:19 10° SW 21:13:15 41° SSE 21:16:13 10° E visible
21 Jun 3.1 22:45:41 10° W 22:48:46 72° N 22:51:52 10° ENE visible
22 Jun 2.9 00:21:24 10° WNW 00:24:31 78° N 00:27:36 10° E visible
22 Jun 3.4 01:57:07 10° W 01:59:59 34° SSW 02:02:48 10° SE visible
22 Jun 2.8 21:42:20 10° WSW 21:45:26 84° SSE 21:48:33 10° ENE visible
22 Jun 3.2 23:18:04 10° W 23:21:08 66° N 23:24:13 10° E visible
23 Jun 2.8 00:53:42 10° WNW 00:56:46 61° SSW 00:59:49 10° ESE visible
23 Jun 4.6 02:30:07 10° WSW 02:31:53 14° SW 02:33:39 10° S visible
23 Jun 3.2 22:14:39 10° W 22:17:44 68° N 22:20:49 10° ENE visible
23 Jun 2.8 23:50:21 10° WNW 23:53:28 87° NNE 23:56:34 10° ESE visible
24 Jun 3.8 01:26:09 10° W 01:28:50 27° SW 01:29:29 25° S visible
24 Jun 2.9 21:11:14 10° WSW 21:14:20 85° NNW 21:17:27 10° ENE visible
24 Jun 3.1 22:46:58 10° WNW 22:50:03 68° N 22:53:09 10° E visible
